Hourly Data Report for September 06, 2017

All times are specified in Local Standard Time (LST). Add 1 hour to adjust for Daylight Saving Time where and when it is observed.

CORAL HARBOUR A
NUNAVUT

64°11'36.000" N
83°21'34.000" W
62.20 m
2301002
71915
YZS

Download Data

Hourly Data (September 2017)
Hourly Data Report for September 6, 2017
Temp Definition
°C
Dew Point Temp Definition
°C
Rel Hum Definition
%
Wind Dir Definition
10's deg

Wind Spd Definition
km/h
Visibility Definition
km
Stn Press Definition
kPa
Hmdx Definition


Wind Chill Definition


Weather Definition


TIME
00:00 Legend Double Dagger 2.3 0.2 86 3 14 24.1 100.48     LegendNANA
01:00 Legend Double Dagger 2.0 -0.4 84 3 14 24.1 100.50     Mostly Cloudy
02:00 Legend Double Dagger 1.3 -0.5 88 2 20 24.1 100.51     LegendNANA
03:00 Legend Double Dagger 0.8 -1.2 87 1 15 24.1 100.54     LegendNANA
04:00 Legend Double Dagger -0.6 -2.4 87 34 13 24.1 100.58   -5 Mainly Clear
05:00 Legend Double Dagger 0.5 -2.1 83 1 18 24.1 100.62     LegendNANA
06:00 Legend Double Dagger -1.2 -2.6 90 32 15 24.1 100.66   -6 LegendNANA
07:00 Legend Double Dagger 1.0 -1.6 82 3 14 24.1 100.72     Mainly Clear
08:00 Legend Double Dagger 2.1 -1.4 78 3 15 24.1 100.75     LegendNANA
09:00 Legend Double Dagger 2.6 -2.1 71 6 21 24.1 100.77     LegendNANA
10:00 Legend Double Dagger 2.8 -1.8 72 36 19 24.1 100.80     Mostly Cloudy
11:00 Legend Double Dagger 3.0 -1.9 71 2 24 24.1 100.83     LegendNANA
12:00 Legend Double Dagger 3.3 -2.0 68 1 16 24.1 100.86     LegendNANA
13:00 Legend Double Dagger 3.5 -1.7 69 3 23 24.1 100.89     Mostly Cloudy
14:00 Legend Double Dagger 4.0 -2.1 64 4 16 24.1 100.92     LegendNANA
15:00 Legend Double Dagger 4.1 -2.8 61 5 13 24.1 100.94     LegendNANA
16:00 Legend Double Dagger 4.2 -2.5 62 4 17 24.1 100.97     Mostly Cloudy
17:00 Legend Double Dagger 3.8 -3.1 61 4 13 24.1 101.01     LegendNANA
18:00 Legend Double Dagger 3.2 -3.2 63 5 16 24.1 101.00     LegendNANA
19:00 Legend Double Dagger 1.6 -3.1 71 5 13 24.1 101.03     Mainly Clear
20:00 Legend Double Dagger -0.7 -3.4 82 5 5 24.1 101.07   -2 LegendNANA
21:00 Legend Double Dagger -1.0 -3.6 83 5 4 24.1 101.12   -2 LegendNANA
22:00 Legend Double Dagger -2.0 -3.8 87 2 3 24.1 101.14   -3 Mainly Clear
23:00 Legend Double Dagger -1.1 -2.8 88 36 2 24.1 101.16   -2 LegendNANA

Notes on Data Quality.

Legend

  • E = Estimated
  • M = Missing
  • NA = Not Available
  • ‡ = Partner data that is not subject to review by the National Climate Archives
Date modified: